Tracking 27419 objects as of 9-Jun-2023
HD Live streaming from Space Station
objects crossing your sky now

DELTA 1 DEB

Track DELTA 1 DEB now!
10-day predictions


NORAD ID: 7198
Int'l Code: 1973-086FG
Perigee: 1,205.3 km
Apogee: 1,426.6 km
Inclination: 102.4 °
Period: 111.8 minutes
Semi major axis: 7686 km
RCS: 0.0332 m2 (small)
Launch date: November 6, 1973
Source: United States (US)
Launch site: AIR FORCE WESTERN TEST RANGE (AFWTR)

Note: This is SATELLITE DEBRIS
Your satellite tracking list
Your tracking list is empty




NASA's NSSDC Master Catalog

Two Line Element Set (TLE):
1 07198U 73086FG  23158.93887875  .00000665  00000-0  26955-2 0  9999
2 07198 102.3531 339.3791 0143940 218.5383 303.9135 12.88177047316322
Source of the keplerian elements: AFSPC